View from above orbital plane
|
View from above satellite
|
Ground track
|
The orbit data is extracted from the following two-line orbital elements,
1 36799U 10035E 21023.75927469 .00000264 00000-0 32472-4 0 9994
2 36799 98.2023 208.7225 0011529 333.4538 26.6088 14.91577735571960
Epoch (UTC): | 23 January 2021 18:13:21 |
Eccentricity: | 0.0011529 |
inclination: | 98.2023° |
perigee height: | 585 km |
apogee height: | 601 km |
right ascension of ascending node: | 208.7225° |
argument of perigee: | 333.4538° |
revolutions per day: | 14.91577735 |
mean anomaly at epoch: | 26.6088° |
orbit number at epoch: | 57196 |
The dashed part of the orbit path shows where the satellite is in the earth's shadow,
|
|